Location: Climax
(33.2048°N, 96.4497°W)
Time: 08:14:21
(UTC+00:00)

SL-27 R/B - Visible Passes

Search period start: 26 June 2022 00:00
Search period end: 06 July 2022 00:00
Orbit: 411 x 457 km, 74.7° (Epoch: 25 June)

Date Brightness Start Highest point End Pass type
(mag) Time Alt. Az. Time Alt. Az. Time Alt. Az.
26 Jun 3.9 08:49:35 31° N 08:49:35 31° N 08:51:33 10° N visible
27 Jun 5.0 08:09:32 19° NE 08:09:32 19° NE 08:10:40 10° NNE visible
28 Jun 4.9 09:02:45 13° NW 09:02:45 13° NW 09:03:34 10° NNW visible
29 Jun 5.0 08:22:36 17° N 08:22:36 17° N 08:23:36 10° N visible
30 Jun 5.6 07:42:25 13° NNE 07:42:25 13° NNE 07:42:52 10° NNE visible
02 Jul 5.6 07:55:17 11° N 07:55:17 11° N 07:55:30 10° N visible
